CAPE
0 0 0 0 0 0 0 0 0 0 0 0 21 34 56 136 108 107 109 127 91 83 146 188 225 271 276 255 213 209 148 137 164 221 330 485 609 651 685 649 518 440 385 473 739 916 1202 1385 977
0 0 0 0 0 0 0 0 0 0 0 0 6 33 45 50 291 323 58 2 0 0 0 10 59 94 141 168 214 288 169 21 8 35 166 428 512 498 510 534 703 932 1079 1075 1011 973 1002 1177 1017
0 0 0 0 0 0 0 0 0 0 0 0 0 0 28 62 0 45 81 0 0 0 0 0 0 0 0 0 0 0 0 0 0 0 0 0 0 2 73 488 519 610 746 889 967 1111 1260 1053 1024
0 0 0 0 0 0 0 0 0 0 0 0 0 0 0 0 0 0 25 69 0 0 0 0 0 0 0 0 0 0 0 0 0 0 0 0 0 0 0 0 0 1 1 4 146 485 873 904 896
0 0 0 0 0 0 0 0 0 0 0 0 0 0 0 0 0 0 0 0 0 0 0 0 0 0 0 0 0 0 0 0 0 0 0 0 0 0 0 0 0 0 0 0 50 113 70 412 676
0 0 0 0 0 0 0 0 0 0 0 0 0 0 0 0 0 0 0 0 0 0 0 0 0 0 0 0 0 0 0 0 0 0 0 0 0 0 0 0 0 0 0 0 0 0 0 1 0
0 0 0 0 0 0 0 0 0 0 0 0 0 0 0 0 0 0 0 0 0 0 0 0 0 0 0 0 0 0 0 0 0 0 0 0 0 0 0 0 0 0 0 0 0 0 0 0 0
0 0 0 0 0 0 0 0 0 0 0 0 0 0 0 0 0 0 0 0 0 0 0 0 0 0 0 0 0 0 0 0 0 0 0 0 0 0 0 0 0 0 0 0 0 0 0 0 0
0 0 0 0 0 0 0 0 0 0 0 0 0 0 0 0 0 0 0 0 0 0 0 0 0 0 0 0 0 0 0 0 0 0 0 0 0 0 0 0 0 0 0 0 0 0 0 0 0
0 0 0 0 0 0 0 0 0 0 0 0 0 0 0 0 0 0 0 0 0 0 0 0 0 0 0 0 0 0 0 0 0 0 0 0 0 0 0 0 0 0 0 0 0 0 0 0 0
0 0 0 0 0 0 0 0 0 0 0 0 0 0 0 0 0 0 0 0 0 0 0 0 0 0 0 0 0 0 0 0 0 0 0 0 0 0 0 0 0 0 0 0 0 0 0 0 0
0 0 0 0 0 0 0 0 0 0 0 0 0 0 0 0 0 0 0 0 0 0 0 0 0 0 0 0 0 0 0 0 0 0 0 0 0 0 0 0 0 0 0 0 1 0 0 0 0
0 0 0 0 0 0 0 0 0 0 0 0 0 0 0 0 0 0 0 0 0 0 0 0 0 0 0 0 0 0 0 0 0 0 0 0 0 0 0 0 0 0 0 1 0 0 0 0 0
0 0 0 0 0 0 0 0 0 0 0 0 0 0 0 0 0 0 0 0 0 0 0 0 0 0 0 0 0 0 0 0 0 0 0 0 0 0 0 0 0 0 0 0 0 0 0 0 1
0 0 0 0 0 0 0 0 0 0 0 0 0 0 0 0 0 0 0 0 0 0 0 0 0 0 0 0 0 0 0 0 0 0 0 0 0 0 0 0 0 0 0 0 0 0 0 0 0
0 0 0 0 0 0 0 0 0 0 0 0 0 0 0 0 0 0 0 0 0 0 0 0 0 0 0 0 0 0 0 0 0 0 0 0 0 0 0 0 0 0 0 1 0 0 0 0 0
0 0 0 0 0 0 0 0 0 0 0 0 0 0 0 0 0 0 0 0 0 0 0 0 0 0 0 0 0 0 0 0 0 0 0 0 0 0 0 0 0 0 4 1 0 0 2 1 1
0 0 0 0 0 0 0 0 0 0 0 0 0 0 0 0 0 0 0 0 0 0 0 0 0 0 0 0 0 0 0 0 0 0 0 0 0 0 0 0 0 0 1 2 0 0 0 2 0
0 0 0 0 0 0 0 0 0 0 0 0 0 0 0 0 0 0 0 0 0 0 0 0 0 0 0 0 0 0 0 0 0 0 0 0 0 0 0 0 0 0 0 0 0 1 1 5 0
0 0 0 0 0 0 0 0 0 0 0 0 0 0 0 0 0 0 0 0 0 0 0 0 0 0 0 0 0 0 0 0 0 0 0 0 0 0 0 0 0 0 0 0 0 1 2 1 0
0 0 0 0 0 0 0 0 0 0 0 0 0 0 0 0 0 0 0 0 0 0 0 0 0 0 0 0 0 0 0 0 0 0 0 0 0 0 0 0 0 2 0 0 0 1 1 1 0
0 0 0 0 0 0 0 0 0 0 0 0 0 0 0 0 0 0 0 0 0 0 0 0 0 0 0 0 0 0 0 0 0 0 0 0 0 0 0 0 0 0 3 0 0 1 1 1 0
0 0 0 0 0 0 0 0 0 0 0 0 0 0 0 0 0 0 0 0 0 0 0 0 0 0 0 0 0 0 0 0 0 0 0 0 0 0 0 0 0 0 4 0 0 1 1 2 0
0 0 0 0 0 0 0 0 0 0 0 0 0 0 0 0 0 0 0 0 0 0 0 0 0 0 0 0 0 0 0 0 0 0 0 0 0 0 0 0 0 0 0 0 0 1 1 0 2
0 0 0 0 0 0 0 0 0 0 0 0 0 0 0 0 0 0 0 0 0 0 0 0 0 0 0 0 0 0 0 0 0 0 0 0 0 0 0 0 0 0 0 0 0 0 1 2 1
0 0 0 0 0 0 0 0 0 0 0 0 0 0 0 0 0 0 0 0 0 0 0 0 0 0 0 0 0 0 0 0 0 0 0 0 0 0 0 0 0 0 1 0 0 0 0 0 1
0 0 0 0 0 0 0 0 0 0 0 0 0 0 0 0 0 0 0 0 0 0 0 0 0 0 0 0 0 0 0 0 0 0 0 0 0 0 0 0 0 0 0 0 0 0 0 0 0
0 0 0 0 0 0 0 0 0 0 0 0 0 0 0 0 0 0 0 0 0 0 0 0 0 0 0 0 0 0 0 0 0 0 0 0 0 0 0 0 0 0 0 0 0 0 0 0 0
0 0 0 0 0 0 0 0 0 0 0 0 0 0 0 0 0 0 0 0 0 0 0 0 0 0 0 0 0 0 0 0 0 0 0 0 0 0 0 0 0 0 0 0 1 0 0 0 0
0 0 0 0 0 0 0 0 0 0 0 0 0 0 0 0 0 0 0 0 0 0 0 0 0 0 0 0 0 0 0 0 0 0 0 0 0 0 0 0 0 0 0 0 1 0 0 0 0
CIN
0 0 0 0 0 0 0 0 0 0 0 0 -347 -312 -284 -258 -243 -89 -17 -21 -51 -122 -142 -150 -142 -119 -113 -125 -142 -144 -163 -164 -137 -103 -71 -35 -6 -3 -5 -19 -40 -52 -67 -52 -28 -19 -7 -2 -13
0 0 0 0 0 0 0 0 0 0 0 0 -175 -235 -261 -189 -95 -55 -63 -3 0 0 0 -206 -276 -232 -175 -154 -125 -93 -157 -124 -148 -114 -188 -62 -39 -44 -35 -33 -7 -1 0 0 -1 -2 -4 -2 -11
0 0 0 0 0 0 0 0 0 0 0 0 0 0 -132 -82 0 -11 -45 0 0 0 0 0 0 0 0 0 0 0 0 0 0 0 0 0 0 -64 -309 -60 -50 -16 -7 -1 0 0 0 -2 -3
0 0 0 0 0 0 0 0 0 0 0 0 0 0 0 0 0 0 -64 -111 0 0 0 0 0 0 0 0 0 0 0 0 0 0 0 0 0 0 0 0 0 -8 -9 -6 -207 -35 -1 -4 -2
0 0 0 0 0 0 0 0 0 0 0 0 0 0 0 0 0 0 0 0 0 0 0 0 0 0 0 0 0 0 0 0 0 0 0 0 0 0 0 0 0 0 0 0 -278 -236 -251 -56 -23
0 0 0 0 0 0 0 0 0 0 0 0 0 0 0 0 0 0 0 0 0 0 0 0 0 0 0 0 0 0 0 0 0 0 0 0 0 0 0 0 0 0 -1 0 0 0 0 0 0
0 0 0 0 0 0 0 0 0 0 0 0 0 0 0 0 0 0 0 0 0 0 0 0 0 0 0 0 0 0 0 0 0 0 0 0 0 0 0 0 0 0 0 0 0 0 0 0 0
0 0 0 0 0 0 0 0 0 0 0 0 0 0 0 0 0 0 0 0 0 0 0 0 0 0 0 0 0 0 0 0 0 0 0 0 0 0 0 0 0 0 0 0 0 0 0 0 0
0 0 0 0 0 0 0 0 0 0 0 0 0 0 0 0 0 0 0 0 0 0 0 0 0 0 0 0 0 0 0 0 0 0 0 0 0 0 0 0 0 0 0 0 0 0 0 0 0
0 0 0 0 0 0 0 0 0 0 0 0 0 0 0 0 0 0 0 0 0 0 0 0 0 0 0 0 0 0 0 0 0 0 0 0 0 0 0 0 0 0 0 0 0 0 0 0 0
0 0 0 0 0 0 0 0 0 0 0 0 0 0 0 0 0 0 0 0 0 0 0 0 0 0 0 0 0 0 0 0 0 0 0 0 0 0 0 0 0 0 0 0 0 0 0 0 0
0 0 0 0 0 0 0 0 0 0 0 0 0 0 0 0 0 0 0 0 0 0 0 0 0 0 0 0 0 0 0 0 0 0 0 0 0 0 0 0 0 0 0 0 0 0 0 0 0
0 0 0 0 0 0 0 0 0 0 0 0 0 0 0 0 0 0 0 0 0 0 0 0 0 0 0 0 0 0 0 0 0 0 0 0 0 0 0 0 0 0 0 0 0 0 0 0 0
0 0 0 0 0 0 0 0 0 0 0 0 0 0 0 0 0 0 0 0 0 0 0 0 0 0 0 0 0 0 0 0 0 0 0 0 0 0 0 0 0 0 -1 0 0 0 0 0 0
0 0 0 0 0 0 0 0 0 0 0 0 0 0 0 0 0 0 0 0 0 0 0 0 0 0 0 0 0 0 0 0 0 0 0 0 0 0 0 0 0 0 0 0 0 0 0 0 0
0 0 0 0 0 0 0 0 0 0 0 0 0 0 0 0 0 0 0 0 0 0 0 0 0 0 0 0 0 0 0 0 0 0 0 0 0 0 0 0 0 0 0 0 0 0 0 0 0
0 0 0 0 0 0 0 0 0 0 0 0 0 0 0 0 0 0 0 0 0 0 0 0 0 0 0 0 0 0 0 0 0 0 0 0 0 0 0 0 0 0 0 -1 0 0 0 0 0
0 0 0 0 0 0 0 0 0 0 0 0 0 0 0 0 0 0 0 0 0 0 0 0 0 0 0 0 0 0 0 0 0 0 0 0 0 0 0 0 0 0 0 0 0 0 0 0 0
0 0 0 0 0 0 0 0 0 0 0 0 0 0 0 0 0 0 0 0 0 0 0 0 0 0 0 0 0 0 0 0 0 0 0 0 0 0 0 0 0 0 0 0 0 0 0 -1 0
0 0 0 0 0 0 0 0 0 0 0 0 0 0 0 0 0 0 0 0 0 0 0 0 0 0 0 0 0 0 0 0 0 0 0 0 0 0 0 0 0 0 0 0 0 0 0 0 0
0 0 0 0 0 0 0 0 0 0 0 0 0 0 0 0 0 0 0 0 0 0 0 0 0 0 0 0 0 0 0 0 0 0 0 0 0 0 0 0 0 -1 0 0 0 0 0 -1 0
0 0 0 0 0 0 0 0 0 0 0 0 0 0 0 0 0 0 0 0 0 0 0 0 0 0 0 0 0 0 0 0 0 0 0 0 0 0 0 0 0 0 0 0 0 0 0 0 0
0 0 0 0 0 0 0 0 0 0 0 0 0 0 0 0 0 0 0 0 0 0 0 0 0 0 0 0 0 0 0 0 0 0 0 0 0 0 0 0 0 0 0 0 0 0 0 0 0
0 0 0 0 0 0 0 0 0 0 0 0 0 0 0 0 0 0 0 0 0 0 0 0 0 0 0 0 0 0 0 0 0 0 0 0 0 0 0 0 0 0 0 0 0 0 0 0 -1
0 0 0 0 0 0 0 0 0 0 0 0 0 0 0 0 0 0 0 0 0 0 0 0 0 0 0 0 0 0 0 0 0 0 0 0 0 0 0 0 0 0 0 0 0 0 0 0 0
0 0 0 0 0 0 0 0 0 0 0 0 0 0 0 0 0 0 0 0 0 0 0 0 0 0 0 0 0 0 0 0 0 0 0 0 0 0 0 0 0 0 -1 0 0 0 0 0 0
0 0 0 0 0 0 0 0 0 0 0 0 0 0 0 0 0 0 0 0 0 0 0 0 0 0 0 0 0 0 0 0 0 0 0 0 0 0 0 0 0 0 0 0 0 0 0 0 0
0 0 0 0 0 0 0 0 0 0 0 0 0 0 0 0 0 0 0 0 0 0 0 0 0 0 0 0 0 0 0 0 0 0 0 0 0 0 0 0 0 0 0 0 0 0 0 0 0
0 0 0 0 0 0 0 0 0 0 0 0 0 0 0 0 0 0 0 0 0 0 0 0 0 0 0 0 0 0 0 0 0 0 0 0 0 0 0 0 0 0 0 0 0 0 0 0 0
0 0 0 0 0 0 0 0 0 0 0 0 0 0 0 0 0 0 0 0 0 0 0 0 0 0 0 0 0 0 0 0 0 0 0 0 0 0 0 0 0 0 0 0 0 0 0 0 0
Wind_Speed
11 12 10 14 19 24 23 22 25 25 25 32 28 28 30 30 26 25 23 25 24 25 26 27 28 28 28 28 28 28 28 28 28 28 28 28 28 28 27 27 27 27 27 27 26 25 25 24 25
10 9 12 17 23 26 23 24 28 26 28 28 30 28 31 30 27 24 25 26 28 29 30 30 30 29 29 29 29 29 28 29 29 30 30 29 29 29 29 30 29 29 29 29 29 29 28 27 27
11 10 13 14 20 24 25 24 28 27 22 19 20 26 22 22 28 22 25 26 29 30 30 31 32 31 31 31 31 30 30 30 30 31 31 31 32 32 32 32 32 31 31 31 31 32 32 31 30
10 10 15 16 20 22 25 26 27 28 29 24 22 25 24 25 22 22 23 25 28 28 29 31 32 32 32 32 32 32 32 32 32 32 33 33 34 34 34 34 34 34 34 34 33 34 35 34 34
11 11 23 22 21 25 24 22 23 24 22 23 23 24 26 27 26 27 27 28 28 30 29 31 33 32 33 34 34 33 33 34 33 35 35 35 35 36 36 37 36 36 36 36 34 34 34 32 33
14 16 21 20 22 24 25 25 26 28 30 30 30 28 26 24 27 27 27 28 28 30 31 32 33 34 34 35 35 36 33 35 35 36 37 37 38 38 39 39 39 39 37 36 36 36 35 34 34
14 13 17 22 22 23 22 22 24 24 24 25 21 24 23 25 27 28 28 28 29 30 32 33 34 34 35 36 37 37 36 36 36 38 38 38 39 40 41 42 41 40 40 40 40 40 39 39 38
12 19 20 20 19 21 21 24 24 26 27 25 20 19 21 23 24 26 27 28 30 31 33 35 35 36 36 37 37 38 39 37 38 39 39 39 40 41 42 42 42 41 42 43 43 42 41 40 39
16 14 15 17 15 18 19 23 26 27 29 30 28 25 24 24 24 26 27 28 28 32 34 36 36 37 36 36 37 38 39 36 38 39 40 40 40 41 41 42 42 42 43 43 43 43 43 43 41
14 15 14 13 18 19 20 22 20 24 28 29 29 27 25 25 25 27 27 28 29 31 34 36 37 37 37 36 37 38 38 35 39 40 40 41 41 43 43 42 42 42 44 43 43 44 43 42 42
14 15 19 20 22 21 21 22 20 23 24 24 25 25 25 25 26 27 27 28 29 30 34 37 37 38 38 37 37 37 36 36 38 41 41 42 43 44 43 41 42 42 44 42 42 42 41 43 43
18 16 19 19 21 21 21 21 23 23 22 22 23 24 24 26 26 26 27 29 30 32 35 38 38 39 38 37 38 39 38 37 39 41 44 44 44 46 44 43 43 44 43 44 42 42 42 42 42
18 17 19 20 21 22 24 23 23 23 23 23 23 23 24 24 25 26 27 28 31 34 35 38 40 39 39 39 39 39 38 38 39 41 44 44 45 44 42 42 42 42 42 43 44 44 42 44 44
14 18 19 19 19 20 21 20 19 18 20 21 21 22 23 23 23 25 27 29 32 33 36 38 40 40 39 39 40 39 38 37 39 41 44 45 44 42 41 42 42 41 41 43 43 44 44 44 44
18 16 15 16 14 15 18 18 17 16 18 19 19 20 22 23 24 25 26 29 31 33 36 38 39 40 40 40 39 38 38 37 39 41 42 44 44 42 41 42 41 40 39 41 41 42 42 43 43
11 12 11 10 10 10 17 13 12 14 16 17 17 19 21 22 23 25 26 29 31 33 36 37 39 40 40 39 37 37 37 36 38 39 41 43 43 41 41 41 40 38 33 25 29 33 38 41 43
10 9 10 7 6 9 16 12 8 10 13 14 15 16 19 21 23 25 27 29 32 34 36 37 39 39 39 39 37 37 37 37 37 39 41 43 42 40 42 40 39 39 37 37 39 39 41 42 42
9 9 11 9 3 9 10 9 7 8 9 10 12 14 17 19 22 24 27 30 32 34 35 36 38 38 38 38 37 37 37 37 36 39 40 41 41 40 41 39 39 40 41 40 41 43 42 39 44
12 6 9 11 13 10 7 7 5 6 8 9 11 13 15 18 20 23 27 29 33 35 36 37 39 38 38 39 39 38 39 38 37 38 39 39 40 41 41 39 39 39 39 39 41 41 42 37 44
13 9 11 14 13 15 8 5 4 5 4 5 8 11 13 16 19 23 27 30 34 35 36 36 37 38 39 38 38 35 37 35 36 36 37 38 40 41 41 40 40 38 39 40 39 36 39 38 41
12 10 10 14 13 16 11 10 6 5 5 6 9 10 13 14 18 22 26 30 33 35 35 35 37 38 39 37 36 37 34 34 37 38 36 38 39 40 40 41 41 40 37 40 38 34 36 39 38
14 13 14 13 14 20 7 22 6 5 4 5 7 10 13 15 18 21 25 30 32 33 35 34 36 38 38 37 38 39 39 38 38 37 36 37 37 39 39 40 42 40 36 41 37 34 32 35 39
14 14 16 16 15 19 14 21 16 3 4 5 7 10 13 15 17 20 24 28 30 33 35 34 36 38 36 37 38 38 38 36 36 36 37 36 37 38 39 41 41 40 38 42 37 34 33 29 34
13 16 18 17 18 24 18 11 17 5 7 6 6 9 12 15 18 20 24 27 30 32 33 35 35 35 35 35 37 38 38 37 38 37 38 37 37 38 39 41 40 39 40 42 36 33 31 32 28
14 17 22 24 24 24 23 17 18 13 8 2 2 7 11 14 17 20 24 27 29 32 32 35 34 35 35 35 36 37 38 37 37 37 37 38 37 38 41 41 41 41 40 40 35 33 33 33 30
13 15 21 28 26 26 22 22 19 15 8 5 5 8 12 15 17 20 24 26 29 30 31 34 35 36 35 34 36 37 36 35 35 35 35 36 35 36 39 40 40 41 40 39 37 34 33 32 33
15 18 16 22 23 26 21 19 15 12 10 8 7 9 11 14 18 21 24 26 29 30 30 33 34 35 35 34 35 37 35 35 35 35 35 35 34 35 37 39 40 40 41 39 38 36 35 33 33
16 15 21 21 27 30 23 21 19 8 7 6 7 9 11 14 18 21 23 26 29 29 28 31 32 34 33 34 35 36 34 34 34 33 35 34 33 34 37 39 40 40 42 41 38 38 36 35 33
16 18 19 18 19 26 30 23 17 9 5 5 6 9 11 15 18 21 23 25 28 28 29 29 32 34 33 34 35 35 34 34 34 34 34 34 33 35 36 38 39 41 43 43 39 39 38 37 35
16 17 16 21 23 22 25 27 23 10 6 5 8 10 13 16 18 21 23 25 27 28 28 30 32 33 33 33 35 34 34 34 34 34 34 35 35 36 36 37 39 41 42 43 41 39 39 37 36
Wind_Direction
242 239 201 140 130 109 103 109 92 79 61 55 62 57 55 45 45 46 58 50 52 39 29 22 18 15 9 7 6 5 2 0 359 356 356 357 356 351 347 342 338 333 331 328 327 326 323 321 318
230 210 154 139 115 66 93 97 55 64 82 75 55 56 42 40 50 57 53 51 48 38 32 28 23 17 13 11 9 6 1 2 359 354 352 356 356 351 346 340 335 329 325 322 319 316 316 315 312
232 193 170 143 103 81 85 90 73 71 73 66 63 44 47 52 39 55 61 56 40 31 27 25 25 21 17 15 12 9 3 359 357 357 356 356 353 351 341 338 335 329 327 325 320 312 308 306 305
221 195 146 13 17 103 88 81 70 64 52 50 52 44 49 45 49 59 56 44 32 25 22 17 17 16 12 12 12 10 5 3 1 358 357 355 353 347 344 342 338 334 331 324 320 314 306 302 296
237 185 69 33 37 81 77 73 68 56 56 48 49 53 52 49 62 55 46 40 37 30 24 19 16 13 11 11 10 8 7 5 6 2 1 358 355 350 346 342 338 335 330 326 322 318 317 313 304
174 128 59 53 51 66 55 63 57 52 54 53 49 54 52 63 57 55 50 46 40 34 25 19 13 9 6 5 5 6 6 3 3 360 357 355 352 348 344 341 336 332 331 329 324 320 316 312 310
150 136 66 86 66 48 63 60 45 46 42 43 68 52 59 59 65 59 51 42 34 25 19 13 8 3 2 1 1 1 2 1 1 357 355 352 349 346 343 339 335 332 328 325 321 318 314 311 306
162 67 80 90 72 55 64 48 51 42 47 67 45 56 70 74 69 57 48 39 30 23 15 9 4 2 1 360 359 359 359 1 359 356 355 354 350 346 342 339 336 333 329 324 320 317 314 312 310
96 58 77 88 70 77 69 42 39 46 45 37 50 68 77 80 68 49 40 32 30 21 14 11 8 5 3 2 1 359 359 4 1 359 356 354 351 348 345 341 338 334 330 326 322 319 315 311 308
15 44 82 77 83 81 67 59 56 52 48 48 56 60 64 59 47 41 33 28 26 18 12 10 8 3 3 3 3 1 3 8 3 358 356 354 350 346 343 341 339 336 332 329 325 321 317 313 309
337 35 67 67 82 78 64 57 62 53 46 59 60 58 53 50 45 41 34 27 24 19 11 5 5 3 3 3 4 4 5 5 3 360 358 354 350 348 347 346 344 342 338 335 330 324 320 314 311
42 49 68 79 79 71 60 64 44 50 60 62 57 55 48 41 38 36 28 23 18 14 9 6 5 4 4 5 4 3 5 5 3 1 359 355 352 349 348 347 345 342 341 337 333 327 320 316 312
58 55 60 78 74 68 65 56 55 58 62 58 54 46 41 41 40 34 27 24 18 12 10 6 4 5 5 5 5 5 7 6 7 2 359 356 353 352 352 351 349 348 344 339 333 329 323 316 311
65 71 74 76 72 70 57 65 46 59 61 53 50 45 42 40 38 29 23 21 17 14 9 7 5 5 6 6 4 6 7 7 5 3 0 358 356 356 355 350 352 353 348 342 336 330 324 320 315
84 60 55 78 73 57 45 30 43 71 60 53 51 49 43 41 35 29 29 22 18 15 10 6 7 6 7 7 8 8 8 8 5 3 3 0 359 358 355 353 356 357 355 349 344 337 330 325 320
15 29 35 84 44 61 15 30 63 69 58 51 54 51 47 40 37 33 28 23 21 17 10 9 7 8 8 9 9 9 9 9 6 5 4 3 2 360 356 357 0 2 8 13 8 359 346 337 325
4 10 12 28 44 42 17 40 68 77 58 54 54 55 50 43 35 32 28 24 20 14 10 8 8 9 11 11 10 9 9 9 8 7 6 5 4 2 357 359 3 0 359 360 357 355 347 341 335
349 356 355 7 55 27 11 19 80 80 63 61 60 52 46 38 32 32 26 22 18 14 11 9 8 12 13 12 11 10 10 8 10 8 8 8 6 3 359 2 3 360 354 354 352 350 349 346 338
352 1 359 8 23 357 352 17 83 87 65 64 56 43 36 33 32 28 23 20 15 12 9 8 6 11 12 10 10 10 8 9 10 9 10 10 9 4 360 1 2 2 5 3 355 352 351 356 344
1 25 2 2 14 7 23 30 63 96 59 65 57 37 32 30 27 22 19 15 12 11 10 9 9 11 11 12 13 12 10 10 9 10 11 9 8 5 2 1 2 3 5 5 5 4 357 359 357
360 3 4 354 10 9 20 6 18 11 35 55 39 35 32 27 24 19 15 12 11 10 10 10 8 9 11 12 13 11 11 11 8 8 8 8 8 5 3 2 2 2 6 5 6 8 5 359 2
339 1 359 1 356 343 3 342 334 358 16 27 22 24 21 24 21 18 14 10 11 11 10 10 8 9 10 12 12 10 9 8 7 8 8 7 8 5 3 3 2 2 6 4 6 8 9 8 1
345 355 348 351 346 345 340 339 348 0 330 340 9 20 16 22 20 15 13 12 13 10 8 9 8 8 12 13 12 11 10 9 9 9 8 9 9 6 5 4 3 4 6 5 8 10 10 11 7
356 347 348 351 348 336 344 322 343 313 314 335 7 21 20 18 16 15 12 12 9 8 8 8 8 10 12 12 12 11 9 8 8 9 9 9 8 7 6 5 6 6 6 6 11 13 13 11 11
351 347 334 331 332 333 352 347 341 340 330 299 9 14 14 15 13 11 9 7 6 6 8 7 9 9 10 11 12 11 9 9 10 10 10 9 9 7 4 5 6 6 8 9 13 14 13 11 12
342 346 334 327 331 337 346 341 348 3 20 51 43 32 17 12 13 11 9 7 6 7 8 7 8 8 10 13 12 10 10 11 12 12 12 12 12 9 8 7 8 7 9 10 12 13 12 11 10
338 333 348 335 337 334 342 352 356 13 27 38 34 21 13 13 9 9 9 8 7 7 7 8 8 10 11 12 11 9 11 13 13 12 12 13 14 12 9 8 7 8 8 8 9 11 11 11 10
336 348 335 338 332 331 339 341 342 344 352 16 13 11 12 9 8 9 9 8 7 8 9 9 11 10 12 12 11 10 12 13 13 14 13 14 15 12 8 7 7 8 7 6 7 9 10 10 9
334 332 338 341 339 332 332 339 350 341 342 350 5 6 6 6 6 8 9 9 8 9 10 11 9 10 12 11 10 11 13 13 12 14 13 13 12 9 7 7 8 7 6 5 5 6 7 8 8
336 336 338 331 333 335 333 330 342 355 356 357 359 4 7 8 9 10 10 9 7 9 11 10 10 11 12 11 11 12 13 13 13 13 12 11 10 9 9 9 9 8 6 5 3 3 4 5 6